Time,TemperatureF,DewpointF,PressureIn,WindDirection,WindDirectionDegrees,WindSpeedMPH,WindSpeedGustMPH,Humidity,HourlyPrecipIn,Conditions,Clouds,dailyrainin,SoftwareType,DateUTC
2013-11-25 00:16:00,10.2,-5.1,30.13,SSW,202,3.2,-999.0,49,-99.99,,,0.00,Acu-Link.com,2013-11-25 05:16:00,
2013-11-25 00:31:00,9.9,-4.6,30.13,South,180,3.7,-999.0,51,-99.99,,,0.00,Acu-Link.com,2013-11-25 05:31:00,
2013-11-25 00:47:00,9.9,-4.6,30.12,South,180,2.7,-999.0,51,-99.99,,,0.00,Acu-Link.com,2013-11-25 05:47:00,
2013-11-25 01:02:00,9.7,-5.2,30.13,SSW,202,0.0,-999.0,50,-99.99,,,0.00,Acu-Link.com,2013-11-25 06:02:00,
2013-11-25 01:17:00,9.7,-5.2,30.12,WSW,247,2.2,-999.0,50,-99.99,,,0.00,Acu-Link.com,2013-11-25 06:17:00,
2013-11-25 01:32:00,9.9,-5.0,30.14,NNW,337,2.7,-999.0,50,-99.99,,,0.00,Acu-Link.com,2013-11-25 06:32:00,
2013-11-25 01:48:00,9.9,-5.0,30.14,SE,135,3.7,-999.0,50,-99.99,,,0.00,Acu-Link.com,2013-11-25 06:48:00,
2013-11-25 02:03:00,9.9,-5.4,30.16,SSE,157,5.3,-999.0,49,-99.99,,,0.00,Acu-Link.com,2013-11-25 07:03:00,
2013-11-25 02:18:00,9.5,-4.5,30.16,ESE,112,0.0,-999.0,52,-99.99,,,0.00,Acu-Link.com,2013-11-25 07:18:00,
2013-11-25 02:34:00,9.3,-5.1,30.17,SSW,202,3.2,-999.0,51,-99.99,,,0.00,Acu-Link.com,2013-11-25 07:34:00,
2013-11-25 02:49:00,9.1,-4.9,30.17,ESE,112,1.7,-999.0,52,-99.99,,,0.00,Acu-Link.com,2013-11-25 07:49:00,
2013-11-25 03:04:00,9.0,-5.0,30.18,SSE,157,0.0,-999.0,52,-99.99,,,0.00,Acu-Link.com,2013-11-25 08:04:00,
2013-11-25 03:20:00,8.6,-5.8,30.19,West,270,2.2,-999.0,51,-99.99,,,0.00,Acu-Link.com,2013-11-25 08:20:00,
2013-11-25 03:35:00,8.8,-5.6,30.19,South,180,1.7,-999.0,51,-99.99,,,0.00,Acu-Link.com,2013-11-25 08:35:00,
2013-11-25 03:50:00,8.2,-5.4,30.20,South,180,2.7,-999.0,53,-99.99,,,0.00,Acu-Link.com,2013-11-25 08:50:00,
2013-11-25 04:06:00,8.1,-5.4,30.20,SW,225,2.7,-999.0,53,-99.99,,,0.00,Acu-Link.com,2013-11-25 09:06:00,
2013-11-25 04:21:00,7.7,-5.4,30.21,SW,225,3.2,-999.0,54,-99.99,,,0.00,Acu-Link.com,2013-11-25 09:21:00,
2013-11-25 04:36:00,7.5,-5.2,30.21,SW,225,2.7,-999.0,55,-99.99,,,0.00,Acu-Link.com,2013-11-25 09:36:00,
2013-11-25 04:51:00,7.5,-4.9,30.22,ENE,67,1.7,-999.0,56,-99.99,,,0.00,Acu-Link.com,2013-11-25 09:51:00,
2013-11-25 05:07:00,7.3,-5.1,30.23,WSW,247,2.2,-999.0,56,-99.99,,,0.00,Acu-Link.com,2013-11-25 10:07:00,
2013-11-25 05:22:00,7.2,-4.8,30.23,North,0,2.2,-999.0,57,-99.99,,,0.00,Acu-Link.com,2013-11-25 10:22:00,
2013-11-25 05:37:00,7.3,-4.7,30.24,SSW,202,2.2,-999.0,57,-99.99,,,0.00,Acu-Link.com,2013-11-25 10:37:00,
2013-11-25 05:53:00,7.5,-4.5,30.25,NNW,337,2.2,-999.0,57,-99.99,,,0.00,Acu-Link.com,2013-11-25 10:53:00,
2013-11-25 06:08:00,7.3,-5.1,30.25,South,180,4.2,-999.0,56,-99.99,,,0.00,Acu-Link.com,2013-11-25 11:08:00,
2013-11-25 06:23:00,7.3,-5.1,30.26,SW,225,2.7,-999.0,56,-99.99,,,0.00,Acu-Link.com,2013-11-25 11:23:00,
2013-11-25 06:38:00,7.0,-5.0,30.26,SSW,202,2.2,-999.0,57,-99.99,,,0.00,Acu-Link.com,2013-11-25 11:38:00,
2013-11-25 06:54:00,7.2,-4.8,30.26,South,180,2.7,-999.0,57,-99.99,,,0.00,Acu-Link.com,2013-11-25 11:54:00,
2013-11-25 07:09:00,7.2,-4.8,30.27,SSW,202,1.7,-999.0,57,-99.99,,,0.00,Acu-Link.com,2013-11-25 12:09:00,
2013-11-25 07:24:00,7.9,-4.1,30.27,ESE,112,0.0,-999.0,57,-99.99,,,0.00,Acu-Link.com,2013-11-25 12:24:00,
2013-11-25 07:39:00,10.4,-1.8,30.28,NE,45,1.7,-999.0,57,-99.99,,,0.00,Acu-Link.com,2013-11-25 12:39:00,
2013-11-25 07:54:00,12.0,-1.0,30.28,SW,225,2.2,-999.0,55,-99.99,,,0.00,Acu-Link.com,2013-11-25 12:54:00,
2013-11-25 08:10:00,13.1,-1.2,30.28,East,90,1.7,-999.0,52,-99.99,,,0.00,Acu-Link.com,2013-11-25 13:10:00,
2013-11-25 08:25:00,14.2,-1.0,30.28,SE,135,0.0,-999.0,50,-99.99,,,0.00,Acu-Link.com,2013-11-25 13:25:00,
2013-11-25 08:40:00,14.2,-1.8,30.28,NNW,337,3.7,-999.0,48,-99.99,,,0.00,Acu-Link.com,2013-11-25 13:40:00,
2013-11-25 08:55:00,16.2,0.0,30.29,NNW,337,2.7,-999.0,48,-99.99,,,0.00,Acu-Link.com,2013-11-25 13:55:00,
2013-11-25 09:10:00,16.7,-0.9,30.28,SW,225,2.2,-999.0,45,-99.99,,,0.00,Acu-Link.com,2013-11-25 14:10:00,
2013-11-25 09:25:00,19.2,0.9,30.29,East,90,1.1,-999.0,44,-99.99,,,0.00,Acu-Link.com,2013-11-25 14:25:00,
2013-11-25 09:40:00,19.2,-0.6,30.28,SW,225,4.2,-999.0,41,-99.99,,,0.00,Acu-Link.com,2013-11-25 14:40:00,
2013-11-25 09:55:00,20.1,-0.8,30.30,ESE,112,2.7,-999.0,39,-99.99,,,0.00,Acu-Link.com,2013-11-25 14:55:00,
2013-11-25 10:11:00,20.7,0.2,30.29,SW,225,1.7,-999.0,40,-99.99,,,0.00,Acu-Link.com,2013-11-25 15:11:00,
2013-11-25 10:26:00,22.5,0.8,30.28,SSE,157,1.7,-999.0,38,-99.99,,,0.00,Acu-Link.com,2013-11-25 15:26:00,
2013-11-25 10:41:00,21.7,0.1,30.28,SSW,202,2.7,-999.0,38,-99.99,,,0.00,Acu-Link.com,2013-11-25 15:41:00,
2013-11-25 10:56:00,24.3,1.2,30.27,South,180,5.3,-999.0,36,-99.99,,,0.00,Acu-Link.com,2013-11-25 15:56:00,
2013-11-25 11:12:00,24.3,-0.6,30.26,WSW,247,3.2,-999.0,33,-99.99,,,0.00,Acu-Link.com,2013-11-25 16:12:00,
2013-11-25 11:27:00,25.3,0.3,30.26,NW,315,2.7,-999.0,33,-99.99,,,0.00,Acu-Link.com,2013-11-25 16:27:00,
2013-11-25 11:42:00,25.2,0.2,30.27,South,180,3.2,-999.0,33,-99.99,,,0.00,Acu-Link.com,2013-11-25 16:42:00,
2013-11-25 11:57:00,23.5,-0.7,30.27,SSE,157,5.3,-999.0,34,-99.99,,,0.00,Acu-Link.com,2013-11-25 16:57:00,
2013-11-25 12:13:00,25.7,3.1,30.27,SW,225,3.7,-999.0,37,-99.99,,,0.00,Acu-Link.com,2013-11-25 17:13:00,
2013-11-25 12:28:00,25.9,1.4,30.25,South,180,4.7,-999.0,34,-99.99,,,0.00,Acu-Link.com,2013-11-25 17:28:00,
2013-11-25 12:43:00,26.2,2.3,30.25,SW,225,3.7,-999.0,35,-99.99,,,0.00,Acu-Link.com,2013-11-25 17:43:00,
2013-11-25 12:58:00,24.8,1.7,30.24,ENE,67,2.2,-999.0,36,-99.99,,,0.00,Acu-Link.com,2013-11-25 17:58:00,
2013-11-25 13:13:00,26.1,2.2,30.23,SW,225,1.1,-999.0,35,-99.99,,,0.00,Acu-Link.com,2013-11-25 18:13:00,
2013-11-25 13:29:00,26.8,2.9,30.23,North,0,1.1,-999.0,35,-99.99,,,0.00,Acu-Link.com,2013-11-25 18:29:00,
2013-11-25 13:44:00,26.1,5.1,30.22,WSW,247,2.7,-999.0,40,-99.99,,,0.00,Acu-Link.com,2013-11-25 18:44:00,
2013-11-25 13:59:00,25.9,4.9,30.23,WSW,247,2.2,-999.0,40,-99.99,,,0.00,Acu-Link.com,2013-11-25 18:59:00,
2013-11-25 14:15:00,27.1,5.5,30.23,East,90,2.7,-999.0,39,-99.99,,,0.00,Acu-Link.com,2013-11-25 19:15:00,
2013-11-25 14:30:00,26.1,4.6,30.22,SE,135,1.7,-999.0,39,-99.99,,,0.00,Acu-Link.com,2013-11-25 19:30:00,
2013-11-25 14:45:00,25.7,6.3,30.21,ESE,112,0.0,-999.0,43,-99.99,,,0.00,Acu-Link.com,2013-11-25 19:45:00,
2013-11-25 15:00:00,25.3,4.9,30.22,NNW,337,1.7,-999.0,41,-99.99,,,0.00,Acu-Link.com,2013-11-25 20:00:00,
2013-11-25 15:15:00,25.9,7.5,30.22,NE,45,0.0,-999.0,45,-99.99,,,0.00,Acu-Link.com,2013-11-25 20:15:00,
2013-11-25 15:31:00,25.3,7.9,30.23,WSW,247,0.0,-999.0,47,-99.99,,,0.00,Acu-Link.com,2013-11-25 20:31:00,
2013-11-25 15:46:00,24.4,8.5,30.22,NE,45,0.0,-999.0,50,-99.99,,,0.00,Acu-Link.com,2013-11-25 20:46:00,
2013-11-25 16:01:00,23.9,8.9,30.21,NW,315,0.0,-999.0,52,-99.99,,,0.00,Acu-Link.com,2013-11-25 21:01:00,
2013-11-25 16:16:00,23.2,8.6,30.21,NNE,22,2.2,-999.0,53,-99.99,,,0.00,Acu-Link.com,2013-11-25 21:16:00,
2013-11-25 16:31:00,22.3,8.6,30.21,NNW,337,0.0,-999.0,55,-99.99,,,0.00,Acu-Link.com,2013-11-25 21:31:00,
2013-11-25 16:46:00,21.2,8.0,30.21,NNE,22,0.0,-999.0,56,-99.99,,,0.00,Acu-Link.com,2013-11-25 21:46:00,
2013-11-25 17:02:00,20.7,8.7,30.21,South,180,0.0,-999.0,59,-99.99,,,0.00,Acu-Link.com,2013-11-25 22:02:00,
2013-11-25 17:17:00,20.8,9.1,30.20,SSE,157,0.0,-999.0,60,-99.99,,,0.00,Acu-Link.com,2013-11-25 22:17:00,
2013-11-25 17:32:00,21.0,9.0,30.21,ESE,112,0.0,-999.0,59,-99.99,,,0.00,Acu-Link.com,2013-11-25 22:32:00,
2013-11-25 17:47:00,20.8,8.8,30.22,East,90,0.0,-999.0,59,-99.99,,,0.00,Acu-Link.com,2013-11-25 22:47:00,
2013-11-25 18:03:00,20.8,8.8,30.21,NNW,337,0.0,-999.0,59,-99.99,,,0.00,Acu-Link.com,2013-11-25 23:03:00,
2013-11-25 18:18:00,20.8,9.1,30.21,SSE,157,0.0,-999.0,60,-99.99,,,0.00,Acu-Link.com,2013-11-25 23:18:00,
2013-11-25 18:33:00,20.8,9.9,30.21,ESE,112,0.0,-999.0,62,-99.99,,,0.00,Acu-Link.com,2013-11-25 23:33:00,
2013-11-25 18:49:00,20.8,10.6,30.20,WSW,247,0.0,-999.0,64,-99.99,,,0.00,Acu-Link.com,2013-11-25 23:49:00,
2013-11-25 19:04:00,21.4,11.8,30.21,WNW,292,0.0,-999.0,66,-99.99,,,0.00,Acu-Link.com,2013-11-26 00:04:00,
2013-11-25 19:19:00,21.7,11.4,30.19,SSW,202,0.0,-999.0,64,-99.99,,,0.00,Acu-Link.com,2013-11-26 00:19:00,
2013-11-25 19:35:00,22.1,12.5,30.20,ENE,67,0.0,-999.0,66,-99.99,,,0.00,Acu-Link.com,2013-11-26 00:35:00,
2013-11-25 19:50:00,22.3,12.7,30.19,NNE,22,0.0,-999.0,66,-99.99,,,0.00,Acu-Link.com,2013-11-26 00:50:00,
2013-11-25 20:05:00,22.6,13.7,30.19,ESE,112,0.0,-999.0,68,-99.99,,,0.00,Acu-Link.com,2013-11-26 01:05:00,
2013-11-25 20:21:00,22.8,13.8,30.19,ESE,112,0.0,-999.0,68,-99.99,,,0.00,Acu-Link.com,2013-11-26 01:21:00,
2013-11-25 20:36:00,23.5,13.5,30.19,East,90,0.0,-999.0,65,-99.99,,,0.00,Acu-Link.com,2013-11-26 01:36:00,
2013-11-25 20:52:00,23.5,13.5,30.17,East,90,0.0,-999.0,65,-99.99,,,0.00,Acu-Link.com,2013-11-26 01:52:00,
2013-11-25 21:07:00,23.9,13.5,30.17,NE,45,0.0,-999.0,64,-99.99,,,0.00,Acu-Link.com,2013-11-26 02:07:00,
2013-11-25 21:22:00,24.3,13.5,30.17,NNW,337,1.1,-999.0,63,-99.99,,,0.00,Acu-Link.com,2013-11-26 02:22:00,
2013-11-25 21:37:00,24.6,13.8,30.17,NE,45,1.1,-999.0,63,-99.99,,,0.00,Acu-Link.com,2013-11-26 02:37:00,
2013-11-25 21:52:00,24.6,14.2,30.17,ESE,112,0.0,-999.0,64,-99.99,,,0.00,Acu-Link.com,2013-11-26 02:52:00,
2013-11-25 22:08:00,24.6,13.8,30.17,ESE,112,0.0,-999.0,63,-99.99,,,0.00,Acu-Link.com,2013-11-26 03:08:00,
2013-11-25 22:23:00,24.8,13.7,30.17,East,90,0.0,-999.0,62,-99.99,,,0.00,Acu-Link.com,2013-11-26 03:23:00,
2013-11-25 22:38:00,24.8,14.0,30.16,ESE,112,0.0,-999.0,63,-99.99,,,0.00,Acu-Link.com,2013-11-26 03:38:00,
2013-11-25 22:53:00,24.8,14.0,30.16,NE,45,1.1,-999.0,63,-99.99,,,0.00,Acu-Link.com,2013-11-26 03:53:00,
2013-11-25 23:09:00,24.8,14.4,30.16,NE,45,0.0,-999.0,64,-99.99,,,0.00,Acu-Link.com,2013-11-26 04:09:00,
2013-11-25 23:24:00,24.6,13.8,30.15,ENE,67,0.0,-999.0,63,-99.99,,,0.00,Acu-Link.com,2013-11-26 04:24:00,
2013-11-25 23:39:00,24.6,13.5,30.15,East,90,0.0,-999.0,62,-99.99,,,0.00,Acu-Link.com,2013-11-26 04:39:00,
2013-11-25 23:54:00,24.6,13.5,30.16,North,0,0.0,-999.0,62,-99.99,,,0.00,Acu-Link.com,2013-11-26 04:54:00,